| time (UTC) | temp C | wind direction | speed KPH | gust KPH | rain 1hr cm | rain 24hr cm | rain mn cm | humidity % | barometer mb |
| 20260502123041 | 1 | 288 | 0.0 | 0.0 | 0.00 | 0.00 | 0.00 | 87 | 1022.6 |
| 20260502121540 | 1 | 5 | 0.0 | 0.0 | 0.00 | 0.00 | 0.00 | 86 | 1022.5 |
| 20260502114539 | 0 | 5 | 0.0 | 0.0 | 0.00 | 0.00 | 0.00 | 84 | 1022.0 |
| 20260502113038 | 0 | 5 | 0.0 | 0.0 | 0.00 | 0.00 | 0.00 | 84 | 1021.9 |
| 20260502111533 | 1 | 5 | 0.0 | 0.0 | 0.00 | 0.00 | 0.00 | 84 | 1021.8 |
| 20260502110035 | 1 | 5 | 0.0 | 0.0 | 0.00 | 0.00 | 0.00 | 84 | 1021.6 |
| 20260502104530 | 1 | 5 | 0.0 | 0.0 | 0.00 | 0.00 | 0.00 | 84 | 1021.7 |
| 20260502103055 | 1 | 5 | 0.0 | 0.0 | 0.00 | 0.00 | 0.00 | 84 | 1021.6 |
| 20260502101544 | 1 | 5 | 0.0 | 0.0 | 0.00 | 0.00 | 0.00 | 83 | 1021.5 |
| 20260502091524 | 1 | 5 | 0.0 | 0.0 | 0.00 | 0.00 | 0.00 | 82 | 1021.4 |
| 20260502071517 | 3 | 18 | 0.0 | 0.0 | 0.00 | 0.00 | 0.00 | 77 | 1020.8 |
| 20260502070014 | 3 | 18 | 0.0 | 0.0 | 0.00 | 0.00 | 0.00 | 76 | 1021.0 |
| 20260502064508 | 3 | 18 | 0.0 | 0.0 | 0.00 | 0.00 | 0.00 | 76 | 1021.0 |
| 20260502063004 | 4 | 18 | 0.0 | 0.0 | 0.00 | 0.00 | 0.00 | 74 | 1020.9 |
| 20260502061501 | 5 | 350 | 0.0 | 0.0 | 0.00 | 0.00 | 0.00 | 71 | 1020.9 |
| 20260502060107 | 5 | 27 | 0.0 | 0.0 | 0.00 | 0.00 | 0.00 | 69 | 1020.8 |
| 20260502054610 | 6 | 27 | 0.0 | 0.0 | 0.00 | 0.00 | 0.00 | 66 | 1020.9 |
| 20260502053051 | 7 | 24 | 0.0 | 0.0 | 0.00 | 0.00 | 0.00 | 63 | 1020.7 |
| 20260502051548 | 7 | 5 | 0.0 | 0.0 | 0.00 | 0.00 | 0.00 | 63 | 1020.9 |
| 20260502050043 | 8 | 5 | 0.0 | 0.0 | 0.00 | 0.00 | 0.00 | 61 | 1020.5 |
| 20260502044543 | 8 | 43 | 0.0 | 0.0 | 0.00 | 0.00 | 0.00 | 59 | 1020.5 |
| 20260502043049 | 9 | 54 | 0.0 | 0.0 | 0.00 | 0.00 | 0.00 | 59 | 1020.4 |
| 20260502041540 | 9 | 22 | 0.0 | 0.0 | 0.00 | 0.00 | 0.00 | 56 | 1020.4 |
| 20260502040048 | 10 | 54 | 0.0 | 4.8 | 0.00 | 0.00 | 0.00 | 57 | 1020.3 |
| 20260502034541 | 10 | 76 | 0.0 | 0.0 | 0.00 | 0.00 | 0.00 | 60 | 1020.3 |
| 20260502033042 | 10 | 36 | 0.0 | 4.8 | 0.00 | 0.00 | 0.00 | 62 | 1020.3 |
| 20260502031539 | 9 | 43 | 0.0 | 4.8 | 0.00 | 0.00 | 0.00 | 67 | 1019.9 |
| 20260502030044 | 9 | 39 | 0.0 | 0.0 | 0.00 | 0.00 | 0.00 | 66 | 1019.7 |
| 20260502024537 | 10 | 25 | 0.0 | 0.0 | 0.00 | 0.00 | 0.00 | 65 | 1019.6 |
| 20260502023037 | 10 | 25 | 0.0 | 0.0 | 0.00 | 0.00 | 0.00 | 64 | 1019.1 |
| 20260502021536 | 11 | 24 | 0.0 | 0.0 | 0.00 | 0.00 | 0.00 | 62 | 1018.8 |
| 20260502020036 | 12 | 24 | 0.0 | 0.0 | 0.00 | 0.00 | 0.00 | 59 | 1018.5 |
| 20260502014536 | 13 | 24 | 0.0 | 0.0 | 0.00 | 0.00 | 0.00 | 55 | 1018.2 |
| 20260502013035 | 13 | 24 | 0.0 | 0.0 | 0.00 | 0.00 | 0.00 | 51 | 1018.1 |
| 20260502011535 | 14 | 24 | 0.0 | 1.6 | 0.00 | 0.00 | 0.00 | 45 | 1018.0 |
| 20260502010038 | 15 | 28 | 0.0 | 4.8 | 0.00 | 0.00 | 0.00 | 44 | 1017.9 |
| 20260502004533 | 15 | 55 | 0.0 | 0.0 | 0.00 | 0.00 | 0.00 | 42 | 1017.7 |
| 20260502003033 | 16 | 5 | 0.0 | 8.0 | 0.00 | 0.00 | 0.00 | 40 | 1017.5 |
| 20260502001533 | 16 | 342 | 0.0 | 9.7 | 0.00 | 0.00 | 0.00 | 39 | 1017.3 |
| 20260502000031 | 17 | 40 | 0.0 | 6.4 | 0.00 | 0.00 | 0.00 | 38 | 1017.2 |
| 20260501234534 | 17 | 22 | 0.0 | 1.6 | 0.00 | 0.00 | 0.00 | 37 | 1017.1 |
| 20260501233030 | 17 | 343 | 0.0 | 8.0 | 0.00 | 0.00 | 0.00 | 36 | 1017.1 |
| 20260501231529 | 18 | 296 | 0.0 | 8.0 | 0.00 | 0.00 | 0.00 | 35 | 1017.2 |
| 20260501230033 | 17 | 317 | 0.0 | 8.0 | 0.00 | 0.00 | 0.00 | 39 | 1017.0 |
| 20260501224528 | 17 | 317 | 0.0 | 4.8 | 0.00 | 0.00 | 0.00 | 38 | 1017.2 |
| 20260501223036 | 17 | 35 | 0.0 | 6.4 | 0.00 | 0.00 | 0.00 | 38 | 1017.0 |
| 20260501221531 | 17 | 321 | 1.6 | 12.9 | 0.00 | 0.00 | 0.00 | 37 | 1017.1 |
| 20260501220025 | 18 | 46 | 1.6 | 8.0 | 0.00 | 0.00 | 0.00 | 39 | 1017.2 |
| 20260501214530 | 18 | 309 | 0.0 | 6.4 | 0.00 | 0.00 | 0.00 | 39 | 1017.2 |
| 20260501213022 | 18 | 337 | 1.6 | 14.5 | 0.00 | 0.00 | 0.00 | 39 | 1017.5 |
| 20260501211522 | 18 | 38 | 1.6 | 6.4 | 0.00 | 0.00 | 0.00 | 38 | 1017.5 |
| 20260501210022 | 18 | 355 | 1.6 | 6.4 | 0.00 | 0.00 | 0.00 | 41 | 1017.8 |
| 20260501204520 | 19 | 5 | 1.6 | 8.0 | 0.00 | 0.00 | 0.00 | 36 | 1018.1 |
| 20260501203026 | 18 | 317 | 0.0 | 9.7 | 0.00 | 0.00 | 0.00 | 39 | 1018.4 |
| 20260501201516 | 18 | 18 | 1.6 | 4.8 | 0.00 | 0.00 | 0.00 | 39 | 1018.5 |
| 20260501200013 | 18 | 29 | 0.0 | 3.2 | 0.00 | 0.00 | 0.00 | 39 | 1018.7 |
| 20260501194513 | 17 | 305 | 0.0 | 6.4 | 0.00 | 0.00 | 0.00 | 37 | 1018.8 |
| 20260501193010 | 18 | 49 | 1.6 | 4.8 | 0.00 | 0.00 | 0.00 | 38 | 1018.9 |
| 20260501191510 | 18 | 351 | 1.6 | 9.7 | 0.00 | 0.00 | 0.00 | 36 | 1018.9 |
| 20260501190010 | 18 | 327 | 0.0 | 6.4 | 0.00 | 0.00 | 0.00 | 41 | 1018.9 |
| 20260501184507 | 18 | 46 | 1.6 | 6.4 | 0.00 | 0.00 | 0.00 | 39 | 1018.8 |
| 20260501183005 | 18 | 339 | 0.0 | 4.8 | 0.00 | 0.00 | 0.00 | 40 | 1019.0 |
| 20260501181504 | 18 | 331 | 0.0 | 1.6 | 0.00 | 0.00 | 0.00 | 36 | 1019.2 |
| 20260501180002 | 18 | 34 | 0.0 | 4.8 | 0.00 | 0.00 | 0.00 | 33 | 1019.3 |
| 20260501174502 | 18 | 36 | 0.0 | 4.8 | 0.00 | 0.00 | 0.00 | 35 | 1019.4 |
| 20260501173101 | 18 | 76 | 0.0 | 4.8 | 0.00 | 0.00 | 0.00 | 41 | 1019.5 |
| 20260501171613 | 18 | 169 | 0.0 | 4.8 | 0.00 | 0.00 | 0.00 | 40 | 1019.8 |
| 20260501170121 | 17 | 304 | 0.0 | 4.8 | 0.00 | 0.00 | 0.00 | 38 | 1019.7 |
| 20260501164600 | 17 | 303 | 0.0 | 3.2 | 0.00 | 0.00 | 0.00 | 41 | 1019.7 |
| 20260501163051 | 16 | 267 | 0.0 | 3.2 | 0.00 | 0.00 | 0.00 | 43 | 1019.8 |
| 20260501161550 | 16 | 360 | 0.0 | 4.8 | 0.00 | 0.00 | 0.00 | 45 | 1019.9 |
| 20260501160049 | 16 | 244 | 0.0 | 0.0 | 0.00 | 0.00 | 0.00 | 43 | 1020.0 |
| 20260501154548 | 15 | 277 | 0.0 | 4.8 | 0.00 | 0.00 | 0.00 | 46 | 1019.9 |
| 20260501153024 | 15 | 311 | 0.0 | 0.0 | 0.00 | 0.00 | 0.00 | 49 | 1019.9 |
| 20260501151523 | 14 | 248 | 0.0 | 1.6 | 0.00 | 0.00 | 0.00 | 48 | 1019.9 |
| 20260501150024 | 13 | 360 | 0.0 | 0.0 | 0.00 | 0.00 | 0.00 | 49 | 1019.9 |
| 20260501144521 | 13 | 360 | 0.0 | 0.0 | 0.00 | 0.00 | 0.00 | 55 | 1019.9 |
| 20260501143014 | 12 | 243 | 0.0 | 0.0 | 0.00 | 0.00 | 0.00 | 57 | 1019.7 |